| time (UTC) | temp F | wind direction | speed MPH | gust MPH | rain 1hr in | rain 24hr in | rain mn in | humidity % | barometer mb |
| 20260508231021 | 63 | 236 | 1.0 | 3.0 | 0.00 | 0.00 | 0.00 | 55 | 1008.6 |
| 20260508230522 | 63 | 233 | 1.0 | 2.0 | 0.00 | 0.00 | 0.00 | 54 | 1008.6 |
| 20260508230020 | 63 | 298 | 1.0 | 2.0 | 0.00 | 0.00 | 0.00 | 57 | 1008.6 |
| 20260508225520 | 63 | 319 | 1.0 | 2.0 | 0.00 | 0.00 | 0.00 | 59 | 1008.5 |
| 20260508225019 | 63 | 0 | 0.0 | 0.0 | 0.00 | 0.00 | 0.00 | 53 | 1008.3 |
| 20260508224519 | 64 | 86 | 0.0 | 1.0 | 0.00 | 0.00 | 0.00 | 52 | 1008.3 |
| 20260508223518 | 65 | 94 | 0.0 | 1.0 | 0.00 | 0.00 | 0.00 | 47 | 1008.4 |
| 20260508223017 | 66 | 228 | 0.0 | 1.0 | 0.00 | 0.00 | 0.00 | 45 | 1008.4 |
| 20260508222517 | 66 | 269 | 1.0 | 3.0 | 0.00 | 0.00 | 0.00 | 45 | 1008.4 |
| 20260508222015 | 66 | 240 | 1.0 | 2.0 | 0.00 | 0.00 | 0.00 | 44 | 1008.4 |
| 20260508221515 | 66 | 228 | 1.0 | 4.0 | 0.00 | 0.00 | 0.00 | 43 | 1008.5 |
| 20260508221014 | 66 | 228 | 2.0 | 3.0 | 0.00 | 0.00 | 0.00 | 42 | 1008.5 |
| 20260508220513 | 66 | 201 | 1.0 | 2.0 | 0.00 | 0.00 | 0.00 | 44 | 1008.4 |
| 20260508220013 | 66 | 263 | 0.0 | 3.0 | 0.00 | 0.00 | 0.00 | 43 | 1008.4 |
| 20260508215513 | 66 | 217 | 2.0 | 6.0 | 0.00 | 0.00 | 0.00 | 42 | 1008.3 |
| 20260508215012 | 66 | 224 | 3.0 | 7.0 | 0.00 | 0.00 | 0.00 | 42 | 1008.4 |
| 20260508214512 | 66 | 205 | 5.0 | 10.0 | 0.00 | 0.00 | 0.00 | 42 | 1008.4 |
| 20260508214012 | 66 | 226 | 3.0 | 6.0 | 0.00 | 0.00 | 0.00 | 44 | 1008.4 |
| 20260508213511 | 66 | 224 | 4.0 | 6.0 | 0.00 | 0.00 | 0.00 | 41 | 1008.4 |
| 20260508213011 | 66 | 225 | 4.0 | 9.0 | 0.00 | 0.00 | 0.00 | 43 | 1008.5 |
| 20260508212509 | 66 | 229 | 5.0 | 10.0 | 0.00 | 0.00 | 0.00 | 40 | 1008.6 |
| 20260508212009 | 66 | 232 | 3.0 | 6.0 | 0.00 | 0.00 | 0.00 | 44 | 1008.5 |
| 20260508211508 | 66 | 228 | 5.0 | 9.0 | 0.00 | 0.00 | 0.00 | 42 | 1008.6 |
| 20260508211008 | 66 | 221 | 4.0 | 8.0 | 0.00 | 0.00 | 0.00 | 41 | 1008.8 |
| 20260508210507 | 66 | 235 | 6.0 | 11.0 | 0.00 | 0.00 | 0.00 | 42 | 1008.9 |
| 20260508210006 | 66 | 214 | 5.0 | 10.0 | 0.00 | 0.00 | 0.00 | 42 | 1009.0 |
| 20260508205505 | 66 | 235 | 7.0 | 12.0 | 0.00 | 0.00 | 0.00 | 40 | 1009.2 |
| 20260508205005 | 66 | 217 | 7.0 | 11.0 | 0.00 | 0.00 | 0.00 | 41 | 1009.2 |
| 20260508204504 | 66 | 218 | 6.0 | 11.0 | 0.00 | 0.00 | 0.00 | 40 | 1009.3 |
| 20260508204003 | 67 | 233 | 5.0 | 10.0 | 0.00 | 0.00 | 0.00 | 40 | 1009.4 |
| 20260508203503 | 66 | 229 | 6.0 | 11.0 | 0.00 | 0.00 | 0.00 | 42 | 1009.5 |
| 20260508203002 | 67 | 225 | 6.0 | 11.0 | 0.00 | 0.00 | 0.00 | 41 | 1009.5 |
| 20260508202502 | 67 | 232 | 8.0 | 14.0 | 0.00 | 0.00 | 0.00 | 39 | 1009.5 |
| 20260508202001 | 67 | 211 | 9.0 | 15.0 | 0.00 | 0.00 | 0.00 | 40 | 1009.5 |
| 20260508201501 | 67 | 239 | 6.0 | 10.0 | 0.00 | 0.00 | 0.00 | 39 | 1009.6 |
| 20260508200500 | 67 | 235 | 8.0 | 15.0 | 0.00 | 0.00 | 0.00 | 38 | 1009.5 |
| 20260508195459 | 67 | 207 | 9.0 | 15.0 | 0.00 | 0.00 | 0.00 | 38 | 1009.8 |
| 20260508194958 | 67 | 207 | 9.0 | 17.0 | 0.00 | 0.00 | 0.00 | 38 | 1009.7 |
| 20260508194458 | 67 | 224 | 8.0 | 14.0 | 0.00 | 0.00 | 0.00 | 40 | 1009.7 |
| 20260508193957 | 67 | 225 | 8.0 | 16.0 | 0.00 | 0.00 | 0.00 | 37 | 1009.7 |
| 20260508193457 | 67 | 231 | 11.0 | 19.0 | 0.00 | 0.00 | 0.00 | 38 | 1009.8 |
| 20260508192456 | 68 | 207 | 10.0 | 18.0 | 0.00 | 0.00 | 0.00 | 37 | 1009.9 |
| 20260508191955 | 68 | 222 | 10.0 | 20.0 | 0.00 | 0.00 | 0.00 | 35 | 1010.0 |
| 20260508191455 | 68 | 215 | 11.0 | 19.0 | 0.00 | 0.00 | 0.00 | 37 | 1010.0 |
| 20260508190954 | 68 | 236 | 9.0 | 20.0 | 0.00 | 0.00 | 0.00 | 36 | 1010.1 |
| 20260508190453 | 69 | 218 | 11.0 | 24.0 | 0.00 | 0.00 | 0.00 | 36 | 1010.2 |
| 20260508185953 | 68 | 215 | 12.0 | 22.0 | 0.00 | 0.00 | 0.00 | 40 | 1010.2 |
| 20260508185453 | 67 | 195 | 12.0 | 21.0 | 0.00 | 0.00 | 0.00 | 39 | 1010.5 |
| 20260508184952 | 68 | 205 | 11.0 | 22.0 | 0.00 | 0.00 | 0.00 | 37 | 1010.6 |
| 20260508184451 | 69 | 212 | 12.0 | 21.0 | 0.00 | 0.00 | 0.00 | 38 | 1010.5 |
| 20260508183450 | 68 | 212 | 8.0 | 14.0 | 0.00 | 0.00 | 0.00 | 39 | 1010.7 |
| 20260508182950 | 67 | 243 | 8.0 | 16.0 | 0.00 | 0.00 | 0.00 | 42 | 1010.7 |
| 20260508182448 | 68 | 218 | 11.0 | 21.0 | 0.00 | 0.00 | 0.00 | 40 | 1010.8 |
| 20260508181947 | 68 | 218 | 11.0 | 20.0 | 0.00 | 0.00 | 0.00 | 41 | 1010.9 |
| 20260508181446 | 68 | 222 | 11.0 | 20.0 | 0.00 | 0.00 | 0.00 | 44 | 1011.0 |
| 20260508180946 | 66 | 221 | 11.0 | 18.0 | 0.00 | 0.00 | 0.00 | 43 | 1011.1 |
| 20260508180445 | 66 | 214 | 10.0 | 19.0 | 0.00 | 0.00 | 0.00 | 42 | 1011.3 |
| 20260508175943 | 66 | 222 | 12.0 | 19.0 | 0.00 | 0.00 | 0.00 | 42 | 1011.3 |
| 20260508175442 | 66 | 222 | 10.0 | 18.0 | 0.00 | 0.00 | 0.00 | 41 | 1011.3 |
| 20260508174943 | 66 | 218 | 8.0 | 14.0 | 0.00 | 0.00 | 0.00 | 46 | 1011.3 |
| 20260508174441 | 65 | 222 | 9.0 | 14.0 | 0.00 | 0.00 | 0.00 | 43 | 1011.4 |
| 20260508173941 | 65 | 231 | 9.0 | 17.0 | 0.00 | 0.00 | 0.00 | 43 | 1011.5 |
| 20260508172940 | 65 | 226 | 10.0 | 15.0 | 0.00 | 0.00 | 0.00 | 42 | 1011.8 |
| 20260508172439 | 65 | 210 | 10.0 | 15.0 | 0.00 | 0.00 | 0.00 | 43 | 1011.9 |
| 20260508171939 | 65 | 217 | 9.0 | 18.0 | 0.00 | 0.00 | 0.00 | 44 | 1011.9 |
| 20260508171438 | 66 | 191 | 10.0 | 18.0 | 0.00 | 0.00 | 0.00 | 46 | 1011.9 |
| 20260508170938 | 66 | 194 | 9.0 | 17.0 | 0.00 | 0.00 | 0.00 | 42 | 1011.9 |
| 20260508165937 | 68 | 212 | 12.0 | 22.0 | 0.00 | 0.00 | 0.00 | 46 | 1012.1 |
| 20260508165436 | 67 | 236 | 11.0 | 18.0 | 0.00 | 0.00 | 0.00 | 42 | 1012.2 |
| 20260508164936 | 66 | 197 | 12.0 | 20.0 | 0.00 | 0.00 | 0.00 | 43 | 1012.3 |
| 20260508164435 | 66 | 215 | 12.0 | 21.0 | 0.00 | 0.00 | 0.00 | 42 | 1012.4 |
| 20260508163934 | 67 | 218 | 12.0 | 19.0 | 0.00 | 0.00 | 0.00 | 45 | 1012.4 |
| 20260508163434 | 66 | 218 | 11.0 | 20.0 | 0.00 | 0.00 | 0.00 | 42 | 1012.5 |
| 20260508162933 | 67 | 228 | 7.0 | 12.0 | 0.00 | 0.00 | 0.00 | 47 | 1012.5 |
| 20260508162433 | 66 | 221 | 11.0 | 17.0 | 0.00 | 0.00 | 0.00 | 44 | 1012.6 |
| 20260508161932 | 66 | 215 | 9.0 | 20.0 | 0.00 | 0.00 | 0.00 | 46 | 1012.6 |
| 20260508161432 | 66 | 212 | 9.0 | 15.0 | 0.00 | 0.00 | 0.00 | 45 | 1012.6 |
| 20260508160930 | 65 | 214 | 11.0 | 19.0 | 0.00 | 0.00 | 0.00 | 46 | 1012.8 |
| 20260508160430 | 64 | 214 | 11.0 | 22.0 | 0.00 | 0.00 | 0.00 | 46 | 1012.9 |
| 20260508155928 | 66 | 239 | 10.0 | 17.0 | 0.00 | 0.00 | 0.00 | 48 | 1013.0 |
| 20260508155427 | 65 | 221 | 9.0 | 17.0 | 0.00 | 0.00 | 0.00 | 49 | 1013.1 |
| 20260508154927 | 65 | 219 | 8.0 | 15.0 | 0.00 | 0.00 | 0.00 | 49 | 1013.1 |
| 20260508154427 | 64 | 231 | 9.0 | 14.0 | 0.00 | 0.00 | 0.00 | 49 | 1013.1 |
| 20260508153926 | 63 | 231 | 12.0 | 18.0 | 0.00 | 0.00 | 0.00 | 47 | 1013.2 |
| 20260508153426 | 63 | 222 | 10.0 | 18.0 | 0.00 | 0.00 | 0.00 | 49 | 1013.2 |
| 20260508152925 | 63 | 224 | 10.0 | 18.0 | 0.00 | 0.00 | 0.00 | 49 | 1013.2 |
| 20260508151924 | 62 | 228 | 10.0 | 18.0 | 0.00 | 0.00 | 0.00 | 48 | 1013.3 |
| 20260508151424 | 62 | 218 | 11.0 | 21.0 | 0.00 | 0.00 | 0.00 | 48 | 1013.3 |
| 20260508150423 | 62 | 229 | 9.0 | 16.0 | 0.00 | 0.00 | 0.00 | 48 | 1013.4 |
| 20260508145922 | 62 | 214 | 7.0 | 15.0 | 0.00 | 0.00 | 0.00 | 50 | 1013.5 |
| 20260508145422 | 61 | 221 | 7.0 | 13.0 | 0.00 | 0.00 | 0.00 | 51 | 1013.5 |
| 20260508144921 | 60 | 210 | 11.0 | 20.0 | 0.00 | 0.00 | 0.00 | 51 | 1013.5 |
| 20260508144420 | 60 | 224 | 12.0 | 19.0 | 0.00 | 0.00 | 0.00 | 48 | 1013.5 |
| 20260508143920 | 60 | 222 | 11.0 | 21.0 | 0.00 | 0.00 | 0.00 | 49 | 1013.6 |
| 20260508143419 | 60 | 222 | 10.0 | 18.0 | 0.00 | 0.00 | 0.00 | 49 | 1013.6 |
| 20260508142919 | 60 | 228 | 10.0 | 17.0 | 0.00 | 0.00 | 0.00 | 52 | 1013.7 |
| 20260508142418 | 59 | 238 | 10.0 | 19.0 | 0.00 | 0.00 | 0.00 | 50 | 1013.7 |
| 20260508141918 | 59 | 236 | 8.0 | 20.0 | 0.00 | 0.00 | 0.00 | 54 | 1013.8 |
| 20260508141417 | 59 | 217 | 8.0 | 16.0 | 0.00 | 0.00 | 0.00 | 50 | 1013.9 |
| 20260508140917 | 59 | 233 | 9.0 | 17.0 | 0.00 | 0.00 | 0.00 | 52 | 1013.9 |
| 20260508140416 | 58 | 219 | 9.0 | 18.0 | 0.00 | 0.00 | 0.00 | 49 | 1013.8 |
| 20260508135916 | 58 | 225 | 9.0 | 18.0 | 0.00 | 0.00 | 0.00 | 50 | 1013.8 |
| 20260508135415 | 58 | 236 | 9.0 | 20.0 | 0.00 | 0.00 | 0.00 | 49 | 1013.9 |
| 20260508134915 | 58 | 222 | 10.0 | 17.0 | 0.00 | 0.00 | 0.00 | 51 | 1013.8 |
| 20260508134414 | 58 | 212 | 9.0 | 19.0 | 0.00 | 0.00 | 0.00 | 50 | 1013.9 |
| 20260508133912 | 57 | 218 | 8.0 | 17.0 | 0.00 | 0.00 | 0.00 | 52 | 1013.9 |
| 20260508133411 | 57 | 224 | 8.0 | 13.0 | 0.00 | 0.00 | 0.00 | 53 | 1013.9 |
| 20260508132910 | 57 | 208 | 7.0 | 11.0 | 0.00 | 0.00 | 0.00 | 52 | 1013.9 |
| 20260508132410 | 56 | 218 | 8.0 | 12.0 | 0.00 | 0.00 | 0.00 | 52 | 1013.9 |
| 20260508131910 | 56 | 225 | 6.0 | 10.0 | 0.00 | 0.00 | 0.00 | 55 | 1013.9 |
| 20260508131409 | 56 | 226 | 4.0 | 10.0 | 0.00 | 0.00 | 0.00 | 55 | 1013.9 |
| 20260508130908 | 56 | 229 | 5.0 | 8.0 | 0.00 | 0.00 | 0.00 | 57 | 1013.9 |
| 20260508125906 | 55 | 198 | 4.0 | 9.0 | 0.00 | 0.00 | 0.00 | 61 | 1013.9 |
| 20260508125406 | 54 | 225 | 3.0 | 6.0 | 0.00 | 0.00 | 0.00 | 61 | 1013.9 |
| 20260508124905 | 54 | 188 | 3.0 | 6.0 | 0.00 | 0.00 | 0.00 | 61 | 1013.9 |
| 20260508124405 | 53 | 200 | 3.0 | 6.0 | 0.00 | 0.00 | 0.00 | 62 | 1013.9 |
| 20260508123904 | 53 | 191 | 4.0 | 5.0 | 0.00 | 0.00 | 0.00 | 62 | 1013.8 |
| 20260508123404 | 52 | 176 | 3.0 | 6.0 | 0.00 | 0.00 | 0.00 | 65 | 1013.8 |
| 20260508122903 | 51 | 218 | 2.0 | 4.0 | 0.00 | 0.00 | 0.00 | 68 | 1013.9 |
| 20260508122403 | 50 | 221 | 2.0 | 4.0 | 0.00 | 0.00 | 0.00 | 69 | 1013.9 |
| 20260508121902 | 49 | 184 | 0.0 | 3.0 | 0.00 | 0.00 | 0.00 | 72 | 1013.9 |
| 20260508121402 | 49 | 0 | 0.0 | 0.0 | 0.00 | 0.00 | 0.00 | 72 | 1013.9 |
| 20260508120901 | 49 | 200 | 1.0 | 3.0 | 0.00 | 0.00 | 0.00 | 71 | 1013.8 |
| 20260508120401 | 49 | 159 | 2.0 | 4.0 | 0.00 | 0.00 | 0.00 | 73 | 1013.7 |
| 20260508115900 | 49 | 159 | 2.0 | 4.0 | 0.00 | 0.00 | 0.00 | 73 | 1013.7 |
| 20260508115400 | 49 | 159 | 3.0 | 6.0 | 0.00 | 0.00 | 0.00 | 73 | 1013.6 |
| 20260508114900 | 48 | 128 | 2.0 | 4.0 | 0.00 | 0.00 | 0.00 | 75 | 1013.5 |
| 20260508114359 | 48 | 160 | 1.0 | 3.0 | 0.00 | 0.00 | 0.00 | 76 | 1013.6 |
| 20260508113859 | 48 | 150 | 0.0 | 2.0 | 0.00 | 0.00 | 0.00 | 76 | 1013.5 |
| 20260508113357 | 48 | 148 | 0.0 | 3.0 | 0.00 | 0.00 | 0.00 | 75 | 1013.5 |
| 20260508112857 | 48 | 155 | 0.0 | 2.0 | 0.00 | 0.00 | 0.00 | 76 | 1013.5 |
| 20260508112356 | 48 | 118 | 0.0 | 2.0 | 0.00 | 0.00 | 0.00 | 75 | 1013.4 |
| 20260508111856 | 48 | 143 | 0.0 | 1.0 | 0.00 | 0.00 | 0.00 | 75 | 1013.4 |
| 20260508111355 | 48 | 170 | 0.0 | 1.0 | 0.00 | 0.00 | 0.00 | 75 | 1013.3 |
| 20260508110855 | 48 | 158 | 0.0 | 2.0 | 0.00 | 0.00 | 0.00 | 74 | 1013.3 |
| 20260508110353 | 48 | 172 | 2.0 | 3.0 | 0.00 | 0.00 | 0.00 | 74 | 1013.3 |
| 20260508105853 | 48 | 166 | 2.0 | 4.0 | 0.00 | 0.00 | 0.00 | 74 | 1013.1 |
| 20260508105352 | 48 | 180 | 2.0 | 5.0 | 0.00 | 0.00 | 0.00 | 74 | 1013.1 |
| 20260508104852 | 47 | 145 | 1.0 | 6.0 | 0.00 | 0.00 | 0.00 | 74 | 1013.1 |
| 20260508104350 | 47 | 188 | 1.0 | 3.0 | 0.00 | 0.00 | 0.00 | 75 | 1013.1 |
| 20260508103850 | 47 | 153 | 1.0 | 2.0 | 0.00 | 0.00 | 0.00 | 77 | 1013.2 |
| 20260508103349 | 47 | 0 | 0.0 | 0.0 | 0.00 | 0.00 | 0.00 | 78 | 1013.3 |
| 20260508102849 | 47 | 0 | 0.0 | 0.0 | 0.00 | 0.00 | 0.00 | 78 | 1013.4 |
| 20260508102348 | 46 | 186 | 0.0 | 2.0 | 0.00 | 0.00 | 0.00 | 77 | 1013.3 |
| 20260508101848 | 46 | 173 | 0.0 | 2.0 | 0.00 | 0.00 | 0.00 | 79 | 1013.4 |
| 20260508101348 | 46 | 163 | 0.0 | 2.0 | 0.00 | 0.00 | 0.00 | 80 | 1013.3 |
| 20260508100847 | 45 | 180 | 0.0 | 2.0 | 0.00 | 0.00 | 0.00 | 82 | 1013.3 |
| 20260508100346 | 45 | 166 | 0.0 | 1.0 | 0.00 | 0.00 | 0.00 | 83 | 1013.3 |
| 20260508095846 | 45 | 0 | 0.0 | 0.0 | 0.00 | 0.00 | 0.00 | 83 | 1013.3 |
| 20260508095345 | 45 | 0 | 0.0 | 0.0 | 0.00 | 0.00 | 0.00 | 83 | 1013.4 |
| 20260508094844 | 45 | 0 | 0.0 | 0.0 | 0.00 | 0.00 | 0.00 | 83 | 1013.4 |
| 20260508094344 | 45 | 0 | 0.0 | 0.0 | 0.00 | 0.00 | 0.00 | 83 | 1013.4 |
| 20260508093844 | 45 | 0 | 0.0 | 0.0 | 0.00 | 0.00 | 0.00 | 82 | 1013.4 |
| 20260508093343 | 45 | 0 | 0.0 | 0.0 | 0.00 | 0.00 | 0.00 | 82 | 1013.5 |
| 20260508092842 | 46 | 0 | 0.0 | 0.0 | 0.00 | 0.00 | 0.00 | 82 | 1013.4 |
| 20260508092342 | 45 | 225 | 0.0 | 3.0 | 0.00 | 0.00 | 0.00 | 82 | 1013.4 |
| 20260508091840 | 45 | 0 | 0.0 | 0.0 | 0.00 | 0.00 | 0.00 | 84 | 1013.4 |
| 20260508091340 | 45 | 129 | 0.0 | 1.0 | 0.00 | 0.00 | 0.00 | 85 | 1013.4 |
| 20260508090840 | 45 | 0 | 0.0 | 0.0 | 0.00 | 0.00 | 0.00 | 86 | 1013.4 |
| 20260508090340 | 45 | 0 | 0.0 | 0.0 | 0.00 | 0.00 | 0.00 | 87 | 1013.3 |
| 20260508085838 | 45 | 0 | 0.0 | 0.0 | 0.00 | 0.00 | 0.00 | 87 | 1013.4 |
| 20260508085337 | 44 | 0 | 0.0 | 0.0 | 0.00 | 0.00 | 0.00 | 88 | 1013.3 |
| 20260508084836 | 44 | 0 | 0.0 | 0.0 | 0.00 | 0.00 | 0.00 | 87 | 1013.3 |
| 20260508084336 | 44 | 0 | 0.0 | 0.0 | 0.00 | 0.00 | 0.00 | 88 | 1013.4 |
| 20260508083835 | 43 | 0 | 0.0 | 0.0 | 0.00 | 0.00 | 0.00 | 87 | 1013.3 |
| 20260508083335 | 43 | 0 | 0.0 | 0.0 | 0.00 | 0.00 | 0.00 | 87 | 1013.4 |
| 20260508082834 | 43 | 0 | 0.0 | 0.0 | 0.00 | 0.00 | 0.00 | 88 | 1013.4 |
| 20260508082333 | 43 | 0 | 0.0 | 0.0 | 0.00 | 0.00 | 0.00 | 87 | 1013.3 |
| 20260508081833 | 43 | 0 | 0.0 | 0.0 | 0.00 | 0.00 | 0.00 | 87 | 1013.3 |
| 20260508081333 | 42 | 0 | 0.0 | 0.0 | 0.00 | 0.00 | 0.00 | 87 | 1013.2 |
| 20260508080832 | 43 | 0 | 0.0 | 0.0 | 0.00 | 0.00 | 0.00 | 86 | 1013.3 |
| 20260508080332 | 43 | 0 | 0.0 | 0.0 | 0.00 | 0.00 | 0.00 | 86 | 1013.3 |
| 20260508075832 | 43 | 0 | 0.0 | 0.0 | 0.00 | 0.00 | 0.00 | 86 | 1013.2 |
| 20260508075332 | 43 | 0 | 0.0 | 0.0 | 0.00 | 0.00 | 0.00 | 86 | 1013.2 |
| 20260508074331 | 43 | 0 | 0.0 | 0.0 | 0.00 | 0.00 | 0.00 | 86 | 1013.2 |
| 20260508073831 | 43 | 0 | 0.0 | 0.0 | 0.00 | 0.00 | 0.00 | 86 | 1013.2 |
| 20260508073331 | 43 | 0 | 0.0 | 0.0 | 0.00 | 0.00 | 0.00 | 85 | 1013.1 |
| 20260508072831 | 43 | 0 | 0.0 | 0.0 | 0.00 | 0.00 | 0.00 | 85 | 1013.2 |
| 20260508072327 | 43 | 0 | 0.0 | 0.0 | 0.00 | 0.00 | 0.00 | 84 | 1013.2 |
| 20260508071827 | 43 | 0 | 0.0 | 0.0 | 0.00 | 0.00 | 0.00 | 83 | 1013.4 |
| 20260508071326 | 43 | 0 | 0.0 | 0.0 | 0.00 | 0.00 | 0.00 | 83 | 1013.4 |
| 20260508070324 | 44 | 0 | 0.0 | 0.0 | 0.00 | 0.00 | 0.00 | 82 | 1013.4 |
| 20260508065824 | 44 | 0 | 0.0 | 0.0 | 0.00 | 0.00 | 0.00 | 82 | 1013.3 |
| 20260508065323 | 44 | 0 | 0.0 | 0.0 | 0.00 | 0.00 | 0.00 | 82 | 1013.4 |
| 20260508064823 | 44 | 0 | 0.0 | 0.0 | 0.00 | 0.00 | 0.00 | 81 | 1013.6 |
| 20260508064322 | 44 | 0 | 0.0 | 0.0 | 0.00 | 0.00 | 0.00 | 81 | 1013.6 |
| 20260508063822 | 44 | 0 | 0.0 | 0.0 | 0.00 | 0.00 | 0.00 | 80 | 1013.7 |
| 20260508063322 | 44 | 0 | 0.0 | 0.0 | 0.00 | 0.00 | 0.00 | 80 | 1013.8 |
| 20260508062821 | 44 | 101 | 0.0 | 0.0 | 0.00 | 0.00 | 0.00 | 81 | 1013.8 |
| 20260508062321 | 44 | 0 | 0.0 | 0.0 | 0.00 | 0.00 | 0.00 | 81 | 1013.8 |
| 20260508061821 | 44 | 0 | 0.0 | 0.0 | 0.00 | 0.00 | 0.00 | 81 | 1013.9 |
| 20260508061320 | 44 | 0 | 0.0 | 0.0 | 0.00 | 0.00 | 0.00 | 81 | 1013.9 |
| 20260508060820 | 44 | 0 | 0.0 | 0.0 | 0.00 | 0.00 | 0.00 | 80 | 1013.9 |
| 20260508060318 | 44 | 0 | 0.0 | 0.0 | 0.00 | 0.00 | 0.00 | 80 | 1013.8 |
| 20260508055818 | 44 | 0 | 0.0 | 0.0 | 0.00 | 0.00 | 0.00 | 81 | 1013.8 |
| 20260508055318 | 45 | 0 | 0.0 | 0.0 | 0.00 | 0.00 | 0.00 | 81 | 1013.8 |
| 20260508054817 | 45 | 0 | 0.0 | 0.0 | 0.00 | 0.00 | 0.00 | 81 | 1013.9 |
| 20260508054317 | 45 | 0 | 0.0 | 0.0 | 0.00 | 0.00 | 0.00 | 79 | 1013.9 |
| 20260508053817 | 45 | 0 | 0.0 | 0.0 | 0.00 | 0.00 | 0.00 | 77 | 1013.9 |
| 20260508053316 | 45 | 0 | 0.0 | 0.0 | 0.00 | 0.00 | 0.00 | 75 | 1013.8 |
| 20260508052816 | 46 | 0 | 0.0 | 0.0 | 0.00 | 0.00 | 0.00 | 73 | 1013.8 |
| 20260508052315 | 46 | 0 | 0.0 | 0.0 | 0.00 | 0.00 | 0.00 | 73 | 1013.8 |
| 20260508051814 | 46 | 0 | 0.0 | 0.0 | 0.00 | 0.00 | 0.00 | 71 | 1013.7 |
| 20260508051409 | 46 | 0 | 0.0 | 0.0 | 0.00 | 0.00 | 0.00 | 71 | 1013.7 |
| 20260508051314 | 46 | 0 | 0.0 | 0.0 | 0.00 | 0.00 | 0.00 | 71 | 1013.7 |
| 20260508050814 | 47 | 0 | 0.0 | 0.0 | 0.00 | 0.00 | 0.00 | 70 | 1013.7 |
| 20260508050313 | 47 | 0 | 0.0 | 0.0 | 0.00 | 0.00 | 0.00 | 68 | 1013.8 |
| 20260508045812 | 48 | 0 | 0.0 | 0.0 | 0.00 | 0.00 | 0.00 | 67 | 1013.8 |
| 20260508045312 | 48 | 149 | 0.0 | 1.0 | 0.00 | 0.00 | 0.00 | 66 | 1013.8 |
| 20260508044811 | 48 | 0 | 0.0 | 0.0 | 0.00 | 0.00 | 0.00 | 66 | 1013.8 |
| 20260508044311 | 48 | 0 | 0.0 | 0.0 | 0.00 | 0.00 | 0.00 | 66 | 1013.7 |
| 20260508043810 | 48 | 0 | 0.0 | 0.0 | 0.00 | 0.00 | 0.00 | 65 | 1013.7 |
| 20260508043309 | 48 | 200 | 0.0 | 2.0 | 0.00 | 0.00 | 0.00 | 65 | 1013.6 |
| 20260508042809 | 48 | 0 | 0.0 | 0.0 | 0.00 | 0.00 | 0.00 | 66 | 1013.6 |
| 20260508042309 | 48 | 0 | 0.0 | 0.0 | 0.00 | 0.00 | 0.00 | 66 | 1013.6 |
| 20260508041808 | 48 | 193 | 0.0 | 1.0 | 0.00 | 0.00 | 0.00 | 66 | 1013.6 |
| 20260508041308 | 48 | 0 | 0.0 | 0.0 | 0.00 | 0.00 | 0.00 | 66 | 1013.6 |
| 20260508040808 | 47 | 128 | 0.0 | 0.0 | 0.00 | 0.00 | 0.00 | 67 | 1013.6 |
| 20260508040307 | 47 | 128 | 0.0 | 1.0 | 0.00 | 0.00 | 0.00 | 67 | 1013.5 |
| 20260508035807 | 47 | 0 | 0.0 | 0.0 | 0.00 | 0.00 | 0.00 | 67 | 1013.5 |
| 20260508035306 | 48 | 155 | 0.0 | 2.0 | 0.00 | 0.00 | 0.00 | 67 | 1013.5 |
| 20260508034803 | 48 | 0 | 0.0 | 0.0 | 0.00 | 0.00 | 0.00 | 66 | 1013.5 |
| 20260508034303 | 48 | 0 | 0.0 | 0.0 | 0.00 | 0.00 | 0.00 | 65 | 1013.6 |
| 20260508033803 | 49 | 134 | 0.0 | 1.0 | 0.00 | 0.00 | 0.00 | 64 | 1013.6 |
| 20260508033302 | 49 | 0 | 0.0 | 0.0 | 0.00 | 0.00 | 0.00 | 64 | 1013.6 |
| 20260508032802 | 49 | 0 | 0.0 | 0.0 | 0.00 | 0.00 | 0.00 | 65 | 1013.6 |
| 20260508032305 | 49 | 132 | 0.0 | 1.0 | 0.00 | 0.00 | 0.00 | 64 | 1013.6 |
| 20260508031801 | 49 | 162 | 0.0 | 2.0 | 0.00 | 0.00 | 0.00 | 64 | 1013.6 |
| 20260508031301 | 49 | 156 | 0.0 | 0.0 | 0.00 | 0.00 | 0.00 | 63 | 1013.5 |
| 20260508030800 | 49 | 172 | 0.0 | 3.0 | 0.00 | 0.00 | 0.00 | 64 | 1013.5 |
| 20260508030300 | 49 | 177 | 0.0 | 1.0 | 0.00 | 0.00 | 0.00 | 64 | 1013.4 |
| 20260508025800 | 48 | 183 | 0.0 | 2.0 | 0.00 | 0.00 | 0.00 | 65 | 1013.3 |
| 20260508025259 | 48 | 150 | 0.0 | 3.0 | 0.00 | 0.00 | 0.00 | 67 | 1013.3 |
| 20260508024759 | 48 | 0 | 0.0 | 0.0 | 0.00 | 0.00 | 0.00 | 69 | 1013.5 |
| 20260508024257 | 48 | 0 | 0.0 | 0.0 | 0.00 | 0.00 | 0.00 | 70 | 1013.5 |
| 20260508023757 | 48 | 0 | 0.0 | 0.0 | 0.00 | 0.00 | 0.00 | 70 | 1013.5 |
| 20260508023257 | 48 | 0 | 0.0 | 0.0 | 0.00 | 0.00 | 0.00 | 71 | 1013.5 |
| 20260508022757 | 48 | 77 | 0.0 | 1.0 | 0.00 | 0.00 | 0.00 | 71 | 1013.5 |
| 20260508022256 | 48 | 0 | 0.0 | 0.0 | 0.00 | 0.00 | 0.00 | 70 | 1013.5 |
| 20260508021755 | 48 | 0 | 0.0 | 0.0 | 0.00 | 0.00 | 0.00 | 71 | 1013.3 |
| 20260508021255 | 48 | 0 | 0.0 | 0.0 | 0.00 | 0.00 | 0.00 | 73 | 1013.3 |
| 20260508020755 | 48 | 0 | 0.0 | 0.0 | 0.00 | 0.00 | 0.00 | 72 | 1013.4 |
| 20260508020254 | 48 | 0 | 0.0 | 0.0 | 0.00 | 0.00 | 0.00 | 73 | 1013.4 |
| 20260508015753 | 48 | 77 | 0.0 | 0.0 | 0.00 | 0.00 | 0.00 | 74 | 1013.3 |
| 20260508015252 | 48 | 107 | 0.0 | 1.0 | 0.00 | 0.00 | 0.00 | 74 | 1013.2 |
| 20260508014752 | 48 | 0 | 0.0 | 0.0 | 0.00 | 0.00 | 0.00 | 76 | 1013.3 |
| 20260508014252 | 49 | 0 | 0.0 | 0.0 | 0.00 | 0.00 | 0.00 | 76 | 1013.4 |
| 20260508013752 | 49 | 0 | 0.0 | 0.0 | 0.00 | 0.00 | 0.00 | 76 | 1013.3 |
| 20260508013251 | 49 | 0 | 0.0 | 0.0 | 0.00 | 0.00 | 0.00 | 75 | 1013.3 |
| 20260508012751 | 49 | 0 | 0.0 | 0.0 | 0.00 | 0.00 | 0.00 | 74 | 1013.4 |
| 20260508012250 | 49 | 0 | 0.0 | 0.0 | 0.00 | 0.00 | 0.00 | 73 | 1013.4 |
| 20260508011748 | 50 | 0 | 0.0 | 0.0 | 0.00 | 0.00 | 0.00 | 73 | 1013.4 |
| 20260508010747 | 51 | 0 | 0.0 | 0.0 | 0.00 | 0.00 | 0.00 | 69 | 1013.3 |
| 20260508010246 | 51 | 0 | 0.0 | 0.0 | 0.00 | 0.00 | 0.00 | 65 | 1013.3 |
| 20260508005746 | 52 | 0 | 0.0 | 0.0 | 0.00 | 0.00 | 0.00 | 62 | 1013.3 |
| 20260508005246 | 53 | 0 | 0.0 | 0.0 | 0.00 | 0.00 | 0.00 | 58 | 1013.3 |
| 20260508004745 | 54 | 0 | 0.0 | 0.0 | 0.00 | 0.00 | 0.00 | 52 | 1013.2 |
| 20260508004244 | 55 | 0 | 0.0 | 0.0 | 0.00 | 0.00 | 0.00 | 49 | 1013.2 |
| 20260508003744 | 56 | 249 | 0.0 | 1.0 | 0.00 | 0.00 | 0.00 | 47 | 1013.2 |
| 20260508003243 | 56 | 224 | 0.0 | 2.0 | 0.00 | 0.00 | 0.00 | 44 | 1013.2 |
| 20260508002743 | 56 | 222 | 1.0 | 2.0 | 0.00 | 0.00 | 0.00 | 43 | 1013.1 |
| 20260508002242 | 57 | 246 | 2.0 | 4.0 | 0.00 | 0.00 | 0.00 | 43 | 1013.0 |
| 20260508001742 | 57 | 228 | 3.0 | 6.0 | 0.00 | 0.00 | 0.00 | 42 | 1013.0 |
| 20260508001241 | 57 | 231 | 3.0 | 7.0 | 0.00 | 0.00 | 0.00 | 41 | 1013.0 |
| 20260508000741 | 57 | 219 | 3.0 | 4.0 | 0.00 | 0.00 | 0.00 | 41 | 1013.1 |
| 20260508000242 | 57 | 228 | 3.0 | 6.0 | 0.00 | 0.00 | 0.00 | 40 | 1013.0 |
| 20260507235239 | 58 | 229 | 4.0 | 7.0 | 0.00 | 0.00 | 0.00 | 41 | 1013.0 |
| 20260507234738 | 58 | 222 | 3.0 | 8.0 | 0.00 | 0.00 | 0.00 | 40 | 1013.1 |
| 20260507234238 | 58 | 224 | 3.0 | 9.0 | 0.00 | 0.00 | 0.00 | 41 | 1013.0 |
| 20260507233737 | 58 | 302 | 3.0 | 9.0 | 0.00 | 0.00 | 0.00 | 39 | 1013.0 |
| 20260507233237 | 59 | 278 | 4.0 | 9.0 | 0.00 | 0.00 | 0.00 | 40 | 1013.0 |
| 20260507232736 | 59 | 210 | 4.0 | 9.0 | 0.00 | 0.00 | 0.00 | 40 | 1012.9 |
| 20260507232236 | 59 | 269 | 4.0 | 10.0 | 0.00 | 0.00 | 0.00 | 38 | 1012.9 |
| 20260507231737 | 59 | 262 | 3.0 | 8.0 | 0.00 | 0.00 | 0.00 | 38 | 1012.9 |